Wind_Speed
23 25 26 28 29 31 31 30 32 32 31 33 34 36 37 32 27 23 23 23 24 23 19 15 24 26 19 7 5 12 9 6 7 7 7 4 4 3 6 5 3 4 2 4 3 3 1
22 24 25 26 29 30 29 29 29 31 29 31 33 35 39 35 30 34 33 37 32 26 25 24 25 14 11 11 8 15 12 10 10 12 13 9 2 3 5 4 4 1 5 4 1 1 2
22 22 24 25 26 28 28 27 26 27 28 28 28 33 39 40 37 28 30 31 33 30 24 29 19 28 22 6 11 13 16 16 13 10 6 11 3 4 3 5 1 3 4 3 1 1 2
21 22 23 24 25 26 26 25 25 24 25 25 25 27 30 37 34 31 32 25 30 29 29 24 19 27 7 14 12 13 11 13 14 14 12 10 10 7 4 2 5 4 5 2 1 3 0
21 21 22 23 24 24 25 25 23 21 22 22 22 22 21 23 21 29 28 31 25 23 29 30 29 13 6 15 10 12 10 8 12 13 12 9 7 4 5 4 4 6 2 3 2 6 2
21 21 21 21 22 22 23 23 23 20 18 16 16 19 21 19 13 9 13 31 31 16 10 17 13 9 5 3 7 10 3 5 6 5 6 7 6 4 4 4 4 4 2 3 1 2 3
23 21 21 21 21 21 22 22 22 21 20 17 17 21 25 27 24 7 10 8 6 7 22 11 12 13 4 5 7 10 7 2 3 6 4 4 7 3 2 1 3 2 2 2 1 2 3
21 22 21 21 20 19 20 20 20 19 17 14 15 18 18 18 23 28 21 7 3 7 11 21 12 6 1 5 4 15 10 3 4 5 3 6 4 2 1 1 3 3 2 2 2 2 2
22 20 21 20 20 19 18 19 18 16 11 9 12 15 18 8 11 17 18 10 6 2 5 5 4 4 3 7 4 8 7 4 6 6 6 6 3 2 1 4 3 4 4 2 1 6 1
19 20 20 22 20 19 19 17 16 16 10 7 11 13 13 14 2 5 4 3 1 1 5 10 6 4 4 4 6 5 6 2 6 5 5 6 3 2 2 4 2 2 4 2 3 5 2
20 18 20 20 24 21 19 19 18 17 14 10 10 12 8 6 4 3 2 2 2 1 6 10 6 3 5 4 1 8 6 5 4 3 5 2 2 5 6 2 2 2 2 2 0 2 4
21 20 18 21 20 24 20 19 19 19 20 12 9 9 6 2 3 2 3 3 1 6 4 7 5 5 3 5 3 4 5 6 1 5 6 3 1 1 3 2 1 2 2 4 1 2 3
20 21 19 19 21 24 22 20 19 19 21 10 7 8 7 4 1 5 2 2 5 7 4 6 3 4 4 5 4 5 4 4 3 4 4 4 2 1 1 2 5 3 5 3 5 4 5
21 20 21 20 21 23 24 22 21 21 22 11 5 5 5 5 3 1 1 5 10 6 4 3 2 5 4 5 3 4 2 4 5 3 3 4 5 1 1 2 3 1 4 4 4 2 5
21 21 24 23 23 24 25 24 23 23 24 10 4 3 3 5 2 1 5 6 7 6 3 4 1 4 4 3 1 4 3 2 2 3 4 2 3 1 1 1 2 1 2 1 1 0 2
19 22 23 24 24 24 24 26 26 25 22 9 3 4 3 5 1 2 6 3 2 2 2 1 2 3 2 2 4 3 2 2 1 2 1 2 1 2 1 2 4 2 2 2 1 3 5
18 19 21 24 25 26 25 26 28 26 20 8 5 3 6 4 3 5 4 1 3 3 4 2 2 2 3 3 2 1 1 2 2 1 3 2 4 3 2 4 6 2 1 2 2 3 3
17 18 20 22 24 26 26 26 28 26 22 8 3 3 7 5 4 2 2 5 3 2 1 1 1 1 2 2 2 2 1 3 5 4 2 0 3 3 8 3 6 5 6 6 3 4 3
16 18 20 22 22 24 26 27 27 22 19 5 2 2 4 4 3 2 1 2 3 4 3 3 2 2 2 4 3 3 3 2 7 6 5 2 1 2 6 4 1 4 5 4 2 1 8
17 17 19 21 22 22 25 26 27 18 14 5 2 3 4 4 1 6 5 2 2 3 2 2 2 0 1 1 2 3 4 5 7 6 7 3 2 6 6 4 4 4 6 9 8 4 3
18 18 19 20 20 19 22 24 24 17 15 3 3 0 3 2 2 2 1 7 3 3 2 4 2 5 5 3 2 4 3 0 1 4 4 4 5 4 7 11 10 14 13 11 16 19 10
19 20 20 20 18 18 18 21 22 19 13 3 2 2 3 1 2 3 2 5 7 3 7 4 4 6 7 6 8 8 7 5 6 2 6 3 3 2 5 12 13 16 17 18 21 21 22
18 18 19 18 16 16 16 17 19 18 12 4 2 2 4 2 0 2 4 5 7 5 4 4 8 3 5 10 6 6 6 3 5 9 7 6 3 1 5 4 7 10 12 21 9 7 18
18 16 16 15 14 13 13 14 15 14 12 5 2 1 3 3 2 4 2 5 5 4 2 2 4 4 3 2 3 2 2 6 6 7 6 6 5 2 4 5 3 6 4 4 13 12 19
18 16 15 13 11 12 11 9 11 11 9 6 3 1 2 2 3 6 5 4 1 2 3 4 5 5 3 3 2 5 2 2 3 6 7 5 4 2 2 2 10 8 3 7 7 9 14
18 16 14 12 10 11 10 9 8 9 8 7 6 3 1 2 4 2 2 4 4 3 3 4 2 3 3 2 2 3 5 4 3 2 3 5 4 4 1 2 6 5 1 3 4 5 5
15 16 15 12 11 11 10 10 8 9 9 6 5 5 2 2 4 4 4 4 3 2 2 1 3 2 2 2 3 4 5 4 4 7 6 4 4 14 11 7 9 11 5 3 1 6 3
14 15 13 13 12 11 11 10 10 9 10 8 6 6 5 3 5 7 6 5 1 1 3 2 2 0 2 3 4 4 4 5 3 5 6 8 8 5 8 7 11 8 4 9 6 2 3
7 8 11 12 13 12 10 10 12 11 11 11 6 9 10 4 5 6 11 19 18 11 4 4 2 4 5 2 2 2 3 1 3 4 2 3 8 6 11 9 6 7 8 9 2 4 3
Wind_Direction
20 20 18 18 18 18 20 21 20 26 32 28 30 30 40 51 61 60 78 89 101 114 117 140 159 134 122 53 38 1 23 75 66 48 46 100 83 99 128 122 94 87 128 90 126 120 89
24 22 19 18 19 20 23 23 25 26 31 33 37 40 44 54 61 73 84 85 90 100 111 115 122 134 82 68 345 356 30 52 41 75 56 51 95 107 93 88 78 98 107 122 186 15 25
24 23 22 22 18 20 23 26 26 29 31 37 43 47 53 57 58 67 76 83 81 82 101 104 111 95 58 29 360 42 68 65 77 83 73 38 355 76 97 90 101 95 80 40 321 316 40
24 23 24 23 22 20 21 27 30 31 34 36 38 44 53 49 53 61 64 75 84 82 85 104 97 78 69 3 18 51 74 74 82 84 72 46 74 87 54 104 36 66 47 74 213 144 220
20 22 23 23 23 21 20 21 30 31 39 42 44 45 37 30 46 63 75 71 78 79 78 80 73 63 40 0 28 44 71 76 82 79 57 52 58 74 30 76 39 16 162 206 211 202 136
17 19 21 23 22 22 20 21 22 32 36 48 31 29 26 21 29 78 81 73 68 65 42 73 72 71 354 294 323 6 63 35 70 43 31 41 47 71 36 63 190 182 178 221 152 221 191
17 15 17 20 20 22 21 21 21 28 35 53 51 45 55 53 52 98 100 83 30 28 43 58 73 90 146 293 330 21 7 46 47 43 87 27 71 110 124 66 150 137 99 74 117 142 258
19 17 15 16 17 18 19 19 18 24 34 43 45 35 22 36 54 76 82 75 62 148 62 50 45 92 73 332 1 5 16 81 70 91 72 34 87 227 239 49 90 71 101 352 295 331 311
17 17 16 16 13 13 15 15 15 17 26 12 3 2 5 8 43 48 69 81 118 19 83 59 66 7 311 355 36 350 20 11 73 59 56 104 173 292 85 41 90 36 82 34 281 320 27
16 16 16 14 12 10 9 9 9 7 7 337 324 334 344 348 39 36 63 74 157 32 76 1 11 347 347 328 35 341 22 71 45 113 89 79 345 40 53 69 24 103 353 26 359 41 286
15 16 15 13 12 9 5 2 0 3 0 341 343 343 356 6 350 49 44 35 358 136 68 318 328 292 296 53 186 356 355 36 90 88 98 258 47 30 60 359 4 189 305 289 56 26 52
10 14 15 12 10 11 6 1 359 0 357 357 2 11 31 78 357 27 336 319 113 42 18 338 324 345 20 29 29 335 17 42 85 63 46 117 197 113 180 267 177 281 25 36 76 71 15
13 12 13 10 9 10 10 7 3 358 1 354 7 29 44 55 19 321 333 57 46 72 319 316 318 355 25 21 31 32 34 29 88 80 22 14 5 3 70 54 349 46 47 355 358 4 230
17 11 13 12 9 12 11 9 6 0 357 352 332 0 24 30 42 70 33 49 67 222 196 216 324 343 36 359 8 353 64 35 24 78 97 112 345 211 185 138 186 334 126 145 221 255 268
16 18 12 12 8 9 9 7 4 1 348 348 326 346 20 357 6 55 74 52 162 206 194 163 112 66 359 5 35 46 48 108 41 47 113 122 312 60 174 57 72 354 68 31 138 229 315
11 11 13 13 9 6 6 5 3 2 356 355 351 340 30 4 34 64 69 98 74 168 139 61 108 150 115 349 41 29 17 306 46 47 109 213 94 237 210 78 19 95 147 92 70 286 282
10 7 5 7 11 8 3 2 1 2 5 5 343 38 359 19 355 50 91 106 86 57 50 30 35 93 136 144 123 24 9 310 132 309 6 77 100 296 80 212 188 93 232 185 158 183 228
2 1 3 1 3 7 4 0 359 359 6 356 40 27 351 355 51 41 106 140 181 200 143 270 211 263 130 140 162 191 216 216 174 152 166 236 175 254 229 254 200 184 189 163 143 237 224
353 354 354 356 357 359 1 359 358 356 5 2 65 266 352 357 103 33 248 151 159 154 215 200 247 210 202 170 158 176 202 186 169 161 175 183 243 339 342 1 85 211 195 184 166 272 224
346 350 348 348 352 355 357 358 360 6 4 17 71 12 332 37 59 130 150 215 183 188 178 196 233 182 64 300 266 216 198 201 192 175 142 118 212 207 200 206 152 215 213 198 191 206 217
332 342 345 343 344 351 352 355 358 2 356 6 41 328 173 296 330 111 136 171 164 211 264 173 229 214 177 209 182 230 229 354 212 195 142 148 227 196 253 262 259 254 246 221 210 220 209
316 326 336 341 338 344 348 350 355 358 360 34 91 57 8 259 298 147 165 222 197 196 160 241 219 200 199 199 192 195 174 175 202 170 166 184 262 221 266 251 258 257 250 239 234 233 243
310 312 320 332 331 338 344 344 352 358 5 44 65 110 109 303 359 113 223 210 209 173 225 211 197 189 223 234 218 220 212 204 187 162 189 171 194 52 268 329 319 284 242 218 196 209 220
301 309 314 322 325 329 339 340 346 357 6 353 23 106 95 282 193 216 255 198 215 207 236 247 159 158 251 45 346 320 261 250 201 226 172 159 154 166 275 356 297 247 246 151 203 228 220
298 298 304 309 314 316 326 336 336 343 351 340 329 280 126 258 225 285 249 233 251 289 234 219 221 206 149 40 341 319 311 295 236 215 200 173 144 274 246 245 290 292 231 167 175 279 219
294 297 297 301 300 303 310 318 318 320 323 324 294 254 165 124 247 265 297 194 195 202 310 239 43 135 81 123 145 234 243 239 222 113 51 136 150 161 156 246 253 250 179 144 107 289 232
283 290 289 297 294 291 295 302 309 298 294 293 282 264 239 186 263 177 206 211 169 152 195 216 176 160 78 144 201 212 243 203 216 176 175 159 195 217 226 256 278 249 220 140 139 237 196
270 273 280 293 286 280 282 290 302 295 273 260 265 245 249 257 274 211 199 180 142 178 169 205 62 337 83 180 190 228 214 234 187 184 179 171 164 191 201 229 268 172 75 176 213 234 211
252 268 283 282 282 272 272 281 290 294 280 236 248 253 234 226 270 271 251 243 236 208 165 207 211 169 183 143 250 308 245 241 209 260 115 228 195 182 191 212 239 210 221 231 198 211 237
Height
835 832 827 823 817 812 807 802 797 791 784 778 771 763 758 752 749 745 742 742 745 750 752 754 756 763 767 777 790 789 787 788 788 790 791 792 797 801 810 810 809 816 817 818 820 821 820
835 832 829 824 819 814 809 804 800 796 791 786 779 773 765 760 758 755 753 753 754 756 760 760 761 766 769 784 793 792 790 790 790 790 793 795 799 799 808 812 814 815 818 821 820 820 821
836 833 830 826 821 817 812 807 803 798 795 792 788 782 776 772 768 766 765 764 763 764 763 768 769 767 778 798 796 793 793 793 793 793 796 799 799 802 807 814 815 817 821 823 824 822 824
839 835 831 828 824 820 814 811 808 803 801 798 793 789 784 782 779 776 773 773 773 770 771 771 773 775 797 798 797 797 797 797 796 797 799 801 801 805 811 814 819 823 830 833 826 826 827
840 836 833 830 826 822 817 813 810 807 804 801 799 795 791 788 787 786 782 782 782 781 780 777 779 785 807 802 802 801 801 801 800 800 801 802 803 815 818 827 840 837 848 832 828 827 828
843 839 835 831 828 824 821 816 812 809 808 804 803 799 797 793 790 788 789 788 790 789 789 791 797 801 818 817 809 806 804 804 804 803 806 810 820 828 834 839 851 834 833 828 826 827 828
845 841 838 834 830 826 823 819 815 811 809 807 805 803 799 795 792 789 789 793 796 800 797 805 810 813 818 814 810 808 807 807 807 809 820 822 839 855 833 829 828 826 827 827 826 825 829
846 842 839 836 833 829 825 821 818 814 812 810 808 805 803 801 799 797 794 797 804 808 810 813 813 816 817 816 813 810 808 810 811 822 820 836 846 833 830 828 827 828 830 835 828 826 826
848 844 840 837 834 831 827 824 820 816 814 812 809 806 804 803 802 801 802 804 806 807 814 820 822 820 821 818 819 816 813 813 819 826 829 840 837 830 828 831 831 838 835 836 836 833 827
850 846 842 838 834 832 829 826 821 817 814 811 809 807 805 802 804 803 805 808 807 806 828 831 825 824 820 818 819 817 816 819 822 832 833 839 834 833 831 835 834 835 836 834 835 848 857
850 847 843 839 834 831 829 827 823 819 815 812 809 807 806 805 805 806 809 807 807 809 843 836 831 825 822 822 823 821 818 818 826 826 831 843 836 837 838 837 833 836 835 836 836 842 868
850 847 844 841 836 831 827 825 823 819 815 812 810 808 806 806 807 808 808 807 808 831 871 849 831 828 825 825 825 823 822 821 825 828 833 836 834 836 836 834 833 832 834 838 838 848 883
851 848 845 842 838 834 829 824 821 818 814 811 810 809 807 806 808 807 807 808 830 863 850 847 839 831 830 831 828 828 829 832 840 853 843 842 838 836 834 836 834 835 849 888 880 890 865
853 849 845 842 838 835 830 826 821 817 814 811 810 809 808 807 805 806 808 818 854 854 847 835 834 833 835 832 831 831 832 839 834 835 852 864 864 838 836 836 839 832 842 883 881 883 871
854 850 846 843 839 836 832 827 822 817 813 809 809 809 808 807 806 805 814 849 853 845 833 831 830 833 837 832 832 832 832 836 833 833 845 843 849 834 834 832 834 834 850 843 855 878 868
854 851 847 844 840 836 832 827 822 817 812 809 808 808 808 807 806 805 823 839 836 829 828 830 831 829 836 834 835 833 833 832 832 832 833 836 849 835 834 833 838 836 842 847 859 861 861
854 851 847 844 841 836 833 828 823 818 813 811 811 812 809 807 807 812 845 842 830 827 829 830 830 827 829 829 831 833 833 833 831 833 832 831 852 844 837 839 841 848 844 848 855 853 842
853 851 847 844 841 837 833 829 824 819 815 813 814 823 810 809 822 835 845 827 828 828 828 829 828 827 826 826 828 830 830 829 829 832 835 832 838 857 838 828 830 836 838 846 859 853 844
853 850 848 844 841 837 833 829 824 820 817 816 822 821 812 810 834 840 830 827 825 828 828 827 826 823 822 825 829 826 827 826 827 830 833 835 851 868 841 833 829 829 830 832 836 833 826
852 850 847 844 841 837 834 830 825 821 819 818 822 833 822 818 825 827 827 826 827 824 823 823 824 823 824 826 825 826 826 826 826 827 829 833 846 844 846 822 826 829 822 825 826 828 826
851 849 846 843 840 837 834 831 827 823 821 820 823 830 832 840 828 825 825 826 824 826 825 823 823 824 825 827 827 829 826 828 828 827 832 835 845 852 839 832 829 823 819 817 820 808 819
849 847 845 843 840 836 834 831 829 826 822 822 826 829 832 834 828 823 826 829 823 820 826 825 824 819 825 825 822 825 822 828 829 833 835 837 841 837 836 822 822 822 813 811 805 800 797
846 844 843 841 839 836 833 832 830 827 825 823 825 825 827 831 831 831 827 819 818 818 815 815 820 820 821 819 816 816 817 816 817 827 835 837 842 845 839 827 823 809 779 781 789 791 784
843 841 839 839 837 834 832 832 831 829 828 828 826 825 828 831 833 828 817 818 815 816 816 815 819 821 817 814 815 816 820 823 825 824 823 833 838 844 840 832 835 771 765 765 773 766 765
839 838 836 835 834 834 830 829 830 830 829 829 827 827 827 831 830 823 819 818 815 816 817 816 816 816 815 817 824 823 822 814 813 821 826 825 833 835 843 840 799 758 760 766 770 754 746
835 834 833 831 830 831 830 827 827 828 828 829 829 827 827 828 822 818 817 816 820 822 822 816 814 815 817 824 825 822 818 809 811 816 820 824 824 833 836 843 807 759 752 754 757 768 737
830 830 829 828 827 828 828 827 824 825 827 826 828 829 828 828 816 814 817 817 817 817 819 815 815 817 817 828 828 830 822 807 810 820 825 822 823 815 817 817 799 763 756 756 760 747 731
824 825 825 824 825 824 824 824 824 822 823 824 824 825 828 825 814 807 807 810 813 817 816 815 816 819 825 827 825 818 823 806 802 804 810 811 820 821 813 814 809 753 757 756 735 728 727
819 820 821 821 821 821 820 820 820 820 819 820 821 821 822 824 815 808 804 800 800 800 808 811 807 809 810 821 824 819 810 812 804 796 798 797 783 794 791 774 746 745 736 729 730 728 725